Location: Holyhead Bay
(53.3667°N, 4.6667°W)
Time: 18:38:10
(UTC+00:00)

Cosmos 836 Rocket - Pass Details

Date: 24 November 2020
Orbit: 758 x 777 km, 74.1° (Epoch: 16 January)

Event Time Altitude Azimuth Distance (km) Brightness Sun altitude
Rises 18:18:17 0° 199° (SSW) 3,237 8.2 -18.4°
Reaches altitude 10° 18:20:39 10° 198° (SSW) 2,317 7.3 -18.7°
Maximum altitude 18:25:55 78° 114° (ESE) 799 4.4 -19.5°
Enters shadow 18:29:11 24° 30° (NNE) 1,573 5.8 -20.0°
